Location: Breitenfeld
(46.8500°N, 15.6333°E)
Time: 06:48:08
(UTC+00:00)

deb Delta - Visible Passes

Search period start: 26 October 2021 00:00
Search period end: 05 November 2021 00:00
Orbit: 551 x 646 km, 100.0° (Epoch: 25 October)

Date Brightness Start Highest point End Pass type
(mag) Time Alt. Az. Time Alt. Az. Time Alt. Az.
26 Oct ? 01:57:00 10° NE 01:59:46 16° E 02:00:16 16° E visible
26 Oct ? 03:31:09 10° N 03:35:35 62° WNW 03:36:59 40° SW visible
27 Oct ? 02:07:12 10° NE 02:10:28 20° E 02:10:59 19° ESE visible
27 Oct ? 03:41:49 10° N 03:46:09 50° WNW 03:47:41 34° WSW visible
28 Oct ? 02:17:29 10° NE 02:21:06 24° E 02:21:38 23° ESE visible
28 Oct ? 03:52:28 10° N 03:56:40 41° WNW 03:58:21 29° WSW visible
29 Oct ? 02:27:46 10° NE 02:31:41 29° E 02:32:15 28° ESE visible
29 Oct ? 04:03:06 10° N 04:07:07 33° WNW 04:08:58 24° WSW visible
30 Oct ? 02:38:05 10° NNE 02:42:13 36° E 02:42:49 34° ESE visible
30 Oct ? 04:13:43 10° N 04:17:31 28° WNW 04:19:32 20° WSW visible
31 Oct ? 02:48:24 10° NNE 02:52:42 44° ESE 02:53:20 41° SE visible
31 Oct ? 04:24:20 10° N 04:27:52 23° WNW 04:30:03 16° W visible
01 Nov ? 02:58:43 10° NNE 03:03:06 55° ESE 03:03:49 48° SE visible
01 Nov ? 04:34:57 10° NNW 04:38:08 20° WNW 04:40:31 13° W visible
02 Nov ? 03:09:01 10° NNE 03:13:28 68° ESE 03:14:15 55° SSE visible
02 Nov ? 04:45:35 10° NNW 04:48:22 17° WNW 04:50:57 11° W visible
03 Nov ? 03:19:17 10° NNE 03:23:46 84° ESE 03:24:38 58° S visible
03 Nov ? 04:56:17 10° NNW 04:58:32 14° NW 05:00:47 10° W visible
04 Nov ? 01:56:21 10° ENE 01:58:01 12° E 01:58:16 12° E visible
04 Nov ? 03:29:33 10° NNE 03:34:00 80° WNW 03:34:57 55° SSW visible
04 Nov ? 05:07:10 10° NNW 05:08:39 12° NW 05:10:09 10° WNW visible
